Location: Brachstadt
(48.6975°N, 10.6755°E)
Time: 05:08:29
(UTC+00:00)

DMSP B5D2-2 - Pass Details

Date: 18 September 2020
Orbit: 790 x 806 km, 98.3° (Epoch: 27 October)

Event Time Altitude Azimuth Distance (km) Brightness Sun altitude
Rises 18:38:50 0° 19° (NNE) 3,333 7.3 -13.1°
Reaches altitude 10° 18:41:19 10° 26° (NNE) 2,398 6.5 -13.5°
Maximum altitude 18:46:21 43° 98° (E) 1,121 4.4 -14.3°
Drops below altitude 10° 18:51:22 10° 169° (S) 2,380 6.2 -15.1°
Sets 18:53:48 0° 176° (S) 3,304 7.0 -15.5°
